Miscellaneous Local Product
Issued by NWS Hastings, NE

Home | Current Version | Previous Version | Graphics & Text | Print | Product List | Glossary Off
Versions: 1 2 3 4 5 6 7 8 9 10 11 12 13 14 15 16 17 18 19 20 21 22 23 24 25 26 27 28 29 30 31 32 33 34 35 36 37 38 39 40 41 42 43 44 45 46 47 48 49 50

615
AXUS43 KGID 110202
MISGRI

GID CWA HOURLY WEATHER ROUNDUP
NATIONAL WEATHER SERVICE HASTINGS NE
800 PM CST WED FEB 10 2016

NOTE: "FAIR" INDICATES FEW OR NO CLOUDS BELOW 12,000 FEET WITH NO
SIGNIFICANT WEATHER AND/OR OBSTRUCTIONS TO VISIBILITY.

...SOUTH CENTRAL NEBRASKA...

CITY           SKY/WX    TMP DP  RH WIND       PRES   REMARKS
GRAND ISLAND   CLOUDY    32  28  85 NE10      30.04R WCI  24
HASTINGS       CLOUDY    39  31  72 NE18      29.99R WCI  30
KEARNEY        CLOUDY    41  30  65 N16       30.01R
ORD            CLOUDY    34  29  82 NE12      30.03R WCI  25
YORK           CLOUDY    32  28  86 NE10      30.03R WCI  24
AURORA         CLOUDY    32  29  88 NE7       30.02R WCI  26
LEXINGTON      CLOUDY    37  31  77 NW7       30.01R WCI  32
HOLDREGE       CLOUDY    38  30  73 W3        29.99R
HEBRON         PTCLDY    35  32  87 CALM      29.99R

...NEBRASKA PANHANDLE...

CITY           SKY/WX    TMP DP  RH WIND       PRES   REMARKS
CHADRON        CLEAR     35  25  66 NW3       30.08R
ALLIANCE       CLEAR     36  29  75 W7        30.07R WCI  30
SCOTTSBLUFF    CLEAR     41  26  55 W8        30.11R
SIDNEY         CLOUDY    39  28  64 W13       30.11R WCI  31

...WESTERN AND NORTH CENTRAL NEBRASKA...

CITY           SKY/WX    TMP DP  RH WIND       PRES   REMARKS
VALENTINE      CLEAR     34  28  79 NE10      30.08R WCI  26
AINSWORTH      CLEAR     34  29  83 N5        30.07R WCI  30
ONEILL         CLOUDY    29  25  85 NE7       30.07R WCI  22
BROKEN BOW     CLOUDY    42  30  62 N13       30.02R
IMPERIAL       CLOUDY    39  29  67 W10       30.05R WCI  32
NORTH PLATTE   CLOUDY    44  29  55 N9        30.02R
MCCOOK         CLOUDY    40  30  67 CALM      30.03R

...EASTERN NEBRASKA...

CITY           SKY/WX    TMP DP  RH WIND       PRES   REMARKS
NORFOLK        CLOUDY    23  19  85 NE7       30.08R WCI  15
SO SIOUX CITY  CLOUDY    20  13  74 E9        30.13R WCI   9
TEKAMAH        CLOUDY    22  17  81 NE8       30.11R WCI  12
COLUMBUS       CLOUDY    28  18  64 NE9       30.06R WCI  20
ALBION         CLOUDY    30  26  85 NE7       30.06R WCI  23
OMAHA EPPLEY   CLOUDY    25  19  78 NE10      30.09R WCI  15
OFFUTT AFB     CLOUDY    26  22  85 NE8G17    30.06R WCI  17
MILLARD        CLOUDY    29  23  79 NE8       30.06R WCI  21
LINCOLN        CLOUDY    31  25  78 N8        30.05R WCI  23
NEBRASKA CITY  PTCLDY    32  25  74 NE5       30.01R WCI  28
BEATRICE       PTCLDY    34  29  81 N8        30.01R WCI  27
FALLS CITY     CLOUDY    34  22  61 NE7       30.00R WCI  28

...NORTHERN KANSAS...

CITY           SKY/WX    TMP DP  RH WIND       PRES   REMARKS
GOODLAND       CLOUDY    44  28  53 NW9       30.08R
HILL CITY      CLOUDY    45  31  58 NW12G21   30.01R
NORTON         CLEAR     39  27  60 W13       30.00R WCI  32
PHILLIPSBURG   PTCLDY    41  32  70 NW12      29.99R
SMITH CENTER   CLEAR     37  30  75 NW9       29.98R WCI  31
BELOIT         CLEAR     45  32  61 W3        29.97R
HAYS           CLEAR     43  27  52 NW12      30.00R
RUSSELL        CLEAR     39  30  70 W9        29.97R WCI  33
CONCORDIA      CLOUDY    41  30  65 CALM      29.97R
SALINA         CLEAR     43  29  57 NW6       29.97R
TOPEKA         CLEAR     42  24  49 E7        29.96R



USA.gov is the U.S. government's official web portal to all federal, state and local government web resources and services.